Regional Weather Roundup
Issued by NWS

Home | Current Version | Previous Version | Graphics & Text | Print | Product List | Glossary On
Versions: 1 2 3 4 5 6 7 8 9 10 11 12 13 14 15 16 17 18 19 20 21 22 23 24 25 26 27
000
ASUS45 KBOU 282107
RWRCO

WEATHER ROUNDUP FOR COLORADO
NATIONAL WEATHER SERVICE DENVER/BOULDER CO
300 PM MDT SAT MAY 28 2016

NOTE: "FAIR" INDICATES FEW OR NO CLOUDS BELOW 12000 FEET WITH NO
SIGNIFICANT WEATHER AND/OR OBSTRUCTIONS TO VISIBILITY.

COZ001>005-013-030-031-282200-
...NORTHWEST COLORADO...

CITY           SKY/WX    TMP DP  RH WIND       PRES   REMARKS
CRAIG          FAIR      68  33  27 W15G25    30.08S
HAYDEN         FAIR      64  30  27 NW13G21   30.09F
MEEKER         FAIR      68  31  25 N8        30.08F
MOUNT WERNER   NOT AVBL
STEAMBOAT SPGS CLOUDY    58  34  40 NW6       30.11F
WALDEN         PTSUNNY   54  28  37 W9G26     30.18R
$$

COZ006>008-011-282200-
...WEST CENTRAL VALLEYS...

CITY           SKY/WX    TMP DP  RH WIND       PRES   REMARKS
GRAND JUNCTION FAIR      73  34  23 VRB3      30.02F
MONTROSE       FAIR      72  24  16 N10       30.09F
EAGLE          MOSUNNY   61  32  33 NW17G25   30.12R
RIFLE          FAIR      72  32  23 N8        30.04F
DELTA          FAIR      76  24  14 SW15G21   30.05F
NUCLA          FAIR      73  27  17 NW9       30.11S
$$

COZ017>023-064>068-282200-
...SOUTHWEST COLORADO...

CITY           SKY/WX    TMP DP  RH WIND       PRES   REMARKS
DURANGO        FAIR      66  27  23 W12       30.12S
CORTEZ         FAIR      72  25  17 NW13G24   30.09R
PAGOSA SPRINGS CLOUDY    58  31  35 NW17G28   30.20R
TELLURIDE      CLOUDY    55  23  28 S12G17    30.26R
WOLF CREEK PAS LGT SNOW  36  28  75 W13       30.41F
$$

COZ009-010-012-014-032>034-037-058>063-282200-
...CENTRAL COLORADO...

CITY           SKY/WX    TMP DP  RH WIND       PRES   REMARKS
ASPEN          FAIR      61  30  31 VRB3      30.15F
BUENA VISTA    FAIR      65  15  14 W12G20    30.14S
COPPER MTN     NOT AVBL
BERTHOUD PASS  CLOUDY    32  21  64 NE6       30.36R WCI  26
COTTONWOOD PAS CLOUDY    55  12  18 S10G22    30.25S
GUNNISON       FAIR      63  25  23 W13G18    30.16F
KREMMLING      PTSUNNY   55  34  44 NW5       30.18R
LEADVILLE      PTSUNNY   51  20  29 SW9       30.24S
SALIDA         FAIR      66  22  19 W15G24    30.20F
SUNLIGHT       FAIR      48  30  49 SW5       30.34S
WILKERSON PASS PTSUNNY   46  19  34 W6        30.34R
$$

COZ069>075-282200-
...SAN LUIS VALLEY/SANGRE DE CRISTO MOUNTAINS...

CITY           SKY/WX    TMP DP  RH WIND       PRES   REMARKS
ALAMOSA        FAIR      65  31  28 VRB6      30.14F
LA VETA PASS   PTSUNNY   55  28  35 S3        30.29S
SAGUACHE       FAIR      63  32  31 SW18      30.16S
$$

COZ035-036-038>040-282200-
...NORTHERN COLORADO FRONT RANGE...

CITY           SKY/WX    TMP DP  RH WIND       PRES   REMARKS
DENVER INTL AP FAIR      69  41  36 SE5       30.01F
DMNS CITY PARK   N/A     71  34  25 SE10G17   29.99F
AURORA         MOSUNNY   69  36  29 E8        30.03F
FRONT RANGE AP PTSUNNY   68  37  32 SE7G20    30.03F
ERIE MUNI ARPT PTSUNNY   70  36  28 NE7       29.99S
BOULDER MUN AP PTSUNNY   64  36  34 W20G25    30.02R
CENTENNIAL     FAIR      68  35  29 SE9       30.04S
BROOMFIELD     PTSUNNY   72  32  23 CALM      30.02F
FORT COLLINS   PTSUNNY   55  43  62 SE24G32   30.00F THUNDER
LONGMONT       FAIR      70  35  27 W7        30.03R
$$

COZ041-046-047-076>085-087-088-282200-
...PIKES PEAK/PALMER DIVIDE AND SOUTHERN FOOTHILLS...

CITY           SKY/WX    TMP DP  RH WIND       PRES   REMARKS
COLO. SPRINGS  PTSUNNY   65  37  35 S16       30.10R
A. F. ACADEMY  FAIR      61  34  36 VRB3      30.09S
SCHRIEVER AFB  NOT AVBL
ELLICOTT       FAIR     N/A N/A N/A S17       30.08R
FALCON         CLOUDY    58  37  45 N14G20    30.14R
FORT CARSON    LGT RAIN  59  45  60 SE14      30.07R
LIMON          FAIR      67  39  35 E3        30.05F
MONUMENT HILL  PTSUNNY   55  39  54 E9        30.13F
TRINIDAD       FAIR      67  43  41 E6        30.08S
$$

COZ042>045-048>051-090-091-282200-
...NORTHEAST COLORADO...

CITY           SKY/WX    TMP DP  RH WIND       PRES   REMARKS
GREELEY ARPT   PTSUNNY   72  39  30 S6        30.01R
AKRON          FAIR      70  42  36 VRB5      30.01S
BURLINGTON     FAIR      73  39  29 SW6       30.02S
WRAY           NOT AVBL
STERLING       PTSUNNY   68  45  42 NW13G22   29.97R
HOLYOKE        FAIR      79  45  29 SW5       29.96F
FORT MORGAN    FAIR      73  40  30 SW10      30.00S
$$

COZ086-089-092>099-282200-
...SOUTHEAST COLORADO...

CITY           SKY/WX    TMP DP  RH WIND       PRES   REMARKS
PUEBLO         FAIR      76  38  25 SE13G20   30.00F
LA JUNTA       FAIR      75  36  24 VRB3      30.01S
LAMAR          CLOUDY    77  45  32 E12       29.98S
SPRINGFIELD      N/A     77  40  26 W6        30.01F
$$




USA.gov is the U.S. government's official web portal to all federal, state and local government web resources and services.